�������l�o���
Date,Time,MP-1(��Sv/h),MP-2(��Sv/h),MP-3(��Sv/h),MP-4(��Sv/h),MP-5(��Sv/h),MP-6(��Sv/h),MP-7(��Sv/h),MP-8(��Sv/h),����,����(m/s),���J
2022/09/26,00:00,0.562,0.802,0.520,0.997,0.700,0.333,0.583,0.550,�k�k��,2.3,��
2022/09/26,00:10,0.563,0.804,0.519,1.000,0.697,0.335,0.583,0.550,�k�k��,2.0,��
2022/09/26,00:20,0.563,0.802,0.519,0.998,0.699,0.333,0.585,0.550,�k�k��,2.0,��
2022/09/26,00:30,0.562,0.801,0.520,1.000,0.700,0.335,0.582,0.550,�k��,2.6,��
2022/09/26,00:40,0.563,0.804,0.521,1.000,0.698,0.334,0.584,0.550,�k�k��,1.5,��
2022/09/26,00:50,0.563,0.800,0.518,0.997,0.698,0.335,0.583,0.549,�k�k��,1.7,��
2022/09/26,01:00,0.562,0.800,0.519,0.999,0.699,0.335,0.584,0.549,�k�k��,1.7,��
2022/09/26,01:10,0.562,0.803,0.519,0.999,0.700,0.334,0.584,0.550,�k�k��,1.5,��
2022/09/26,01:20,0.563,0.802,0.521,0.998,0.697,0.335,0.583,0.550,�k�k��,1.7,��
2022/09/26,01:30,0.564,0.802,0.519,1.000,0.698,0.334,0.584,0.550,�k�k��,2.5,��
2022/09/26,01:40,0.562,0.803,0.519,0.999,0.698,0.335,0.584,0.551,�k�k��,2.2,��
2022/09/26,01:50,0.563,0.802,0.520,0.999,0.699,0.334,0.582,0.549,�k,2.3,��
2022/09/26,02:00,0.564,0.800,0.521,1.000,0.699,0.335,0.583,0.550,�k�k��,3.1,��
2022/09/26,02:10,0.563,0.803,0.519,0.998,0.698,0.335,0.582,0.549,�k,2.3,��
2022/09/26,02:20,0.564,0.803,0.519,0.999,0.700,0.335,0.584,0.550,�k�k��,2.3,��
2022/09/26,02:30,0.564,0.803,0.520,0.998,0.700,0.333,0.585,0.551,�k�k��,2.3,��
2022/09/26,02:40,0.563,0.803,0.520,1.000,0.700,0.334,0.585,0.550,�k�k��,2.5,��
2022/09/26,02:50,0.565,0.802,0.520,0.999,0.700,0.335,0.583,0.549,�k�k��,2.3,��
2022/09/26,03:00,0.562,0.801,0.521,1.000,0.699,0.334,0.584,0.551,�k�k��,3.7,��
2022/09/26,03:10,0.563,0.802,0.520,0.998,0.701,0.334,0.582,0.551,�k�k��,3.7,��
2022/09/26,03:20,0.562,0.805,0.519,1.001,0.698,0.334,0.583,0.549,�k�k��,3.5,��
2022/09/26,03:30,0.564,0.803,0.520,1.001,0.700,0.334,0.583,0.550,�k�k��,4.4,��
2022/09/26,03:40,0.564,0.802,0.519,1.000,0.700,0.335,0.583,0.551,�k�k��,4.6,��
2022/09/26,03:50,0.564,0.802,0.519,0.999,0.699,0.334,0.585,0.551,�k�k��,4.5,��
2022/09/26,04:00,0.562,0.802,0.520,0.998,0.700,0.335,0.582,0.550,�k�k��,4.0,��
2022/09/26,04:10,0.565,0.801,0.520,1.001,0.701,0.335,0.583,0.550,�k�k��,3.8,��
2022/09/26,04:20,0.564,0.801,0.520,1.002,0.700,0.334,0.584,0.549,�k�k��,3.8,��
2022/09/26,04:30,0.563,0.803,0.520,1.000,0.700,0.336,0.583,0.552,�k�k��,4.3,��
2022/09/26,04:40,0.564,0.804,0.522,0.999,0.701,0.334,0.585,0.549,�k�k��,4.1,��
2022/09/26,04:50,0.564,0.804,0.520,0.999,0.701,0.333,0.584,0.550,�k�k��,4.6,��
2022/09/26,05:00,0.563,0.801,0.520,0.999,0.699,0.334,0.582,0.549,�k�k��,4.5,��
2022/09/26,05:10,0.563,0.802,0.519,1.001,0.699,0.335,0.584,0.548,�k�k��,4.4,��
2022/09/26,05:20,0.565,0.802,0.520,0.998,0.700,0.335,0.583,0.550,�k�k��,4.5,��
2022/09/26,05:30,0.564,0.803,0.519,0.999,0.698,0.336,0.583,0.549,�k�k��,4.8,��
2022/09/26,05:40,0.563,0.802,0.520,1.000,0.699,0.335,0.583,0.551,�k�k��,4.4,��
2022/09/26,05:50,0.564,0.802,0.520,1.000,0.700,0.335,0.583,0.550,�k�k��,4.6,��
2022/09/26,06:00,0.564,0.801,0.519,1.000,0.700,0.336,0.583,0.549,�k�k��,5.0,��
2022/09/26,06:10,0.562,0.803,0.520,1.000,0.701,0.335,0.583,0.550,�k�k��,4.1,��
2022/09/26,06:20,0.563,0.805,0.520,1.000,0.700,0.335,0.584,0.549,�k�k��,4.1,��
2022/09/26,06:30,0.562,0.802,0.522,0.999,0.699,0.334,0.583,0.551,�k�k��,5.1,��
2022/09/26,06:40,0.564,0.804,0.520,1.000,0.699,0.336,0.583,0.551,�k�k��,4.9,��
2022/09/26,06:50,0.564,0.802,0.521,1.001,0.700,0.334,0.584,0.549,�k�k��,5.2,��
2022/09/26,07:00,0.565,0.803,0.521,0.999,0.699,0.335,0.583,0.550,�k�k��,4.0,��
2022/09/26,07:10,0.565,0.805,0.522,1.001,0.699,0.334,0.582,0.549,�k�k��,4.5,��
2022/09/26,07:20,0.564,0.802,0.521,1.002,0.702,0.334,0.582,0.550,�k��,4.4,��
2022/09/26,07:30,0.564,0.800,0.520,0.999,0.700,0.335,0.584,0.550,�k�k��,4.0,��
2022/09/26,07:40,0.564,0.802,0.519,1.001,0.699,0.332,0.582,0.549,�k�k��,4.5,��
2022/09/26,07:50,0.566,0.803,0.521,1.000,0.699,0.333,0.583,0.550,�k�k��,3.5,��
2022/09/26,08:00,0.564,0.802,0.520,1.000,0.701,0.334,0.582,0.551,�k,3.4,��
2022/09/26,08:10,0.563,0.801,0.521,1.001,0.700,0.332,0.581,0.550,�k,3.2,��
2022/09/26,08:20,0.563,0.799,0.518,1.001,0.700,0.334,0.583,0.551,�k,2.3,��
2022/09/26,08:30,0.561,0.801,0.520,1.001,0.699,0.333,0.582,0.551,�k�k��,2.3,��
2022/09/26,08:40,0.559,0.802,0.521,1.001,0.698,0.333,0.583,0.549,�k��,3.5,��
2022/09/26,08:50,0.560,0.802,0.521,1.002,0.700,0.333,0.583,0.548,�k�k��,4.0,��
2022/09/26,09:00,0.560,0.801,0.520,1.003,0.699,0.333,0.583,0.549,�k�k��,4.2,��
2022/09/26,09:10,0.560,0.802,0.519,1.000,0.699,0.332,0.583,0.548,�k�k��,4.5,��
2022/09/26,09:20,0.557,0.801,0.520,1.001,0.700,0.334,0.581,0.549,�k�k��,4.7,��
2022/09/26,09:30,0.559,0.800,0.521,1.003,0.699,0.333,0.582,0.547,�k�k��,4.5,��
2022/09/26,09:40,0.557,0.800,0.522,1.001,0.700,0.334,0.583,0.546,�k�k��,4.5,��
2022/09/26,09:50,0.557,0.801,0.520,1.001,0.700,0.335,0.582,0.548,�k�k��,4.6,��
2022/09/26,10:00,0.557,0.802,0.519,1.002,0.702,0.333,0.584,0.548,�k�k��,4.7,��
2022/09/26,10:10,0.558,0.801,0.520,1.002,0.701,0.333,0.582,0.548,�k�k��,4.8,��
2022/09/26,10:20,0.563,0.801,0.519,1.002,0.700,0.334,0.582,0.548,�k�k��,5.0,��
2022/09/26,10:30,0.565,0.803,0.521,1.001,0.701,0.334,0.582,0.548,�k�k��,5.0,��
2022/09/26,10:40,0.567,0.803,0.523,1.004,0.703,0.336,0.583,0.551,�k��,5.1,��
2022/09/26,10:50,0.566,0.804,0.521,1.001,0.703,0.334,0.583,0.551,�k�k��,4.9,��
2022/09/26,11:00,0.560,0.804,0.520,1.002,0.703,0.334,0.582,0.550,�k�k��,4.9,��
2022/09/26,11:10,0.560,0.805,0.521,1.003,0.704,0.334,0.583,0.551,�k�k��,4.9,��
2022/09/26,11:20,0.561,0.806,0.520,1.002,0.704,0.333,0.583,0.549,�k�k��,4.7,��
2022/09/26,11:30,0.562,0.807,0.521,1.003,0.705,0.334,0.582,0.550,�k�k��,4.2,��
2022/09/26,11:40,0.564,0.808,0.521,1.003,0.705,0.334,0.582,0.549,�k�k��,4.7,��
2022/09/26,11:50,0.564,0.811,0.522,1.005,0.704,0.334,0.582,0.551,�k�k��,4.7,��
2022/09/26,12:00,0.566,0.806,0.523,1.003,0.704,0.334,0.582,0.550,�k��,4.6,��
2022/09/26,12:10,0.565,0.808,0.523,1.002,0.705,0.334,0.582,0.550,�k�k��,3.9,��
2022/09/26,12:20,0.567,0.810,0.522,1.003,0.706,0.333,0.582,0.550,�k�k��,4.5,��
2022/09/26,12:30,0.566,0.807,0.522,1.003,0.705,0.334,0.583,0.551,�k�k��,4.9,��
2022/09/26,12:40,0.565,0.808,0.522,1.005,0.706,0.334,0.583,0.550,�k�k��,4.7,��
2022/09/26,12:50,0.565,0.808,0.521,1.004,0.705,0.336,0.583,0.552,�k�k��,4.0,��
2022/09/26,13:00,0.567,0.808,0.518,1.003,0.707,0.333,0.583,0.551,�k�k��,3.9,��
2022/09/26,13:10,0.567,0.809,0.522,1.003,0.707,0.335,0.584,0.550,�k�k��,3.5,��
2022/09/26,13:20,0.568,0.808,0.522,1.005,0.706,0.336,0.584,0.552,�k�k��,4.5,��
2022/09/26,13:30,0.566,0.809,0.524,1.004,0.707,0.334,0.584,0.550,�k�k��,3.8,��
2022/09/26,13:40,0.570,0.809,0.523,1.005,0.708,0.335,0.581,0.551,�k�k��,3.4,��
2022/09/26,13:50,0.566,0.809,0.522,1.004,0.706,0.335,0.584,0.551,�k�k��,4.2,��
2022/09/26,14:00,0.568,0.809,0.523,1.006,0.706,0.334,0.584,0.552,�k��,3.3,��
2022/09/26,14:10,0.568,0.810,0.523,1.002,0.709,0.334,0.583,0.552,�k��,3.6,��
2022/09/26,14:20,0.570,0.808,0.522,1.005,0.706,0.336,0.583,0.552,�k�k��,3.4,��
2022/09/26,14:30,0.569,0.809,0.522,1.004,0.706,0.335,0.584,0.551,�k��,3.4,��
2022/09/26,14:40,0.570,0.810,0.522,1.004,0.708,0.335,0.583,0.551,�k�k��,3.1,��
2022/09/26,14:50,0.569,0.811,0.523,1.004,0.709,0.334,0.584,0.550,�k�k��,3.2,��
2022/09/26,15:00,0.571,0.811,0.522,1.004,0.706,0.335,0.584,0.553,�k�k��,2.9,��
2022/09/26,15:10,0.568,0.811,0.523,1.006,0.708,0.334,0.584,0.551,�k��,3.2,��
2022/09/26,15:20,0.570,0.809,0.522,1.004,0.707,0.335,0.583,0.552,�k�k��,2.9,��
2022/09/26,15:30,0.569,0.812,0.524,1.005,0.707,0.335,0.583,0.551,�k��,2.6,��
2022/09/26,15:40,0.568,0.811,0.523,1.004,0.709,0.334,0.584,0.552,�k�k��,2.2,��
2022/09/26,15:50,0.569,0.811,0.522,1.005,0.706,0.333,0.584,0.550,�k��,2.3,��
2022/09/26,16:00,0.568,0.810,0.523,1.005,0.708,0.335,0.584,0.552,�k��,2.3,��
2022/09/26,16:10,0.566,0.811,0.522,1.008,0.708,0.335,0.584,0.551,�k��,1.7,��
2022/09/26,16:20,0.567,0.811,0.523,1.005,0.707,0.336,0.584,0.551,�k��,2.0,��
2022/09/26,16:30,0.568,0.813,0.522,1.005,0.709,0.337,0.582,0.551,���k��,1.5,��
2022/09/26,16:40,0.567,0.813,0.523,1.005,0.708,0.335,0.585,0.551,�k��,1.4,��
2022/09/26,16:50,0.569,0.811,0.524,1.004,0.708,0.336,0.583,0.550,���k��,1.2,��
2022/09/26,17:00,0.565,0.812,0.524,1.003,0.706,0.336,0.583,0.552,�k��,1.1,��
2022/09/26,17:10,0.566,0.816,0.523,1.004,0.706,0.336,0.583,0.550,�쓌,0.9,��
2022/09/26,17:20,0.566,0.813,0.523,1.003,0.708,0.335,0.586,0.552,���k��,1.1,��
2022/09/26,17:30,0.567,0.816,0.523,1.004,0.706,0.336,0.585,0.551,�k�k��,1.4,��
2022/09/26,17:40,0.569,0.814,0.524,1.005,0.707,0.337,0.584,0.552,���k��,1.2,��
2022/09/26,17:50,0.568,0.815,0.525,1.005,0.710,0.334,0.584,0.553,-,CALM,��
2022/09/26,18:00,0.568,0.816,0.524,1.005,0.710,0.336,0.584,0.553,���쓌,1.2,��
2022/09/26,18:10,0.570,0.816,0.524,1.006,0.709,0.335,0.586,0.554,�쓌,1.2,��
2022/09/26,18:20,0.567,0.815,0.526,1.006,0.710,0.335,0.585,0.552,��쓌,0.9,��
2022/09/26,18:30,0.567,0.814,0.526,1.007,0.710,0.335,0.585,0.551,��쓌,1.4,��
2022/09/26,18:40,0.568,0.815,0.523,1.004,0.710,0.337,0.585,0.553,�쓌,1.2,��
2022/09/26,18:50,0.568,0.812,0.524,1.005,0.711,0.336,0.584,0.552,�쓌,0.9,��
2022/09/26,19:00,0.570,0.815,0.525,1.007,0.711,0.335,0.585,0.554,��,1.1,��
2022/09/26,19:10,0.566,0.814,0.526,1.005,0.708,0.336,0.585,0.552,��쓌,1.1,��
2022/09/26,19:20,0.567,0.815,0.525,1.006,0.712,0.336,0.584,0.552,��,0.9,��
2022/09/26,19:30,0.568,0.815,0.524,1.006,0.708,0.335,0.584,0.551,-,CALM,��
2022/09/26,19:40,0.568,0.815,0.523,1.005,0.710,0.335,0.584,0.551,-,CALM,��
2022/09/26,19:50,0.568,0.813,0.524,1.005,0.710,0.338,0.585,0.551,-,CALM,��
2022/09/26,20:00,0.568,0.813,0.524,1.004,0.710,0.336,0.584,0.551,-,CALM,��
2022/09/26,20:10,0.565,0.815,0.525,1.005,0.708,0.336,0.586,0.552,��,0.8,��
2022/09/26,20:20,0.569,0.815,0.524,1.005,0.710,0.336,0.584,0.553,���k��,0.8,��
2022/09/26,20:30,0.567,0.815,0.526,1.006,0.710,0.336,0.586,0.551,���k��,0.8,��
2022/09/26,20:40,0.567,0.814,0.525,1.005,0.709,0.338,0.585,0.550,-,CALM,��
2022/09/26,20:50,0.566,0.814,0.526,1.005,0.710,0.336,0.585,0.551,�k�k��,0.6,��
2022/09/26,21:00,0.568,0.814,0.524,1.005,0.710,0.336,0.585,0.552,�k,1.1,��
2022/09/26,21:10,0.567,0.814,0.525,1.004,0.710,0.336,0.584,0.551,�k�k��,1.2,��
2022/09/26,21:20,0.567,0.814,0.525,1.004,0.710,0.336,0.585,0.551,�k�k��,1.1,��
2022/09/26,21:30,0.568,0.814,0.526,1.006,0.710,0.336,0.583,0.550,�k��,1.2,��
2022/09/26,21:40,0.568,0.815,0.525,1.005,0.710,0.336,0.584,0.551,�k,1.2,��
2022/09/26,21:50,0.567,0.814,0.524,1.007,0.710,0.337,0.584,0.551,�k,1.4,��
2022/09/26,22:00,0.568,0.811,0.524,1.007,0.709,0.337,0.584,0.551,�k,1.9,��
2022/09/26,22:10,0.567,0.814,0.524,1.007,0.710,0.337,0.585,0.551,�k,2.3,��
2022/09/26,22:20,0.569,0.810,0.524,1.006,0.711,0.337,0.584,0.551,�k,1.7,��
2022/09/26,22:30,0.568,0.814,0.523,1.007,0.710,0.337,0.584,0.552,�k,2.0,��
2022/09/26,22:40,0.567,0.814,0.525,1.008,0.710,0.337,0.584,0.553,�k�k��,2.5,��
2022/09/26,22:50,0.567,0.812,0.525,1.006,0.710,0.338,0.584,0.553,�k�k��,2.0,��
2022/09/26,23:00,0.568,0.812,0.523,1.007,0.712,0.337,0.585,0.551,�k��,2.2,��
2022/09/26,23:10,0.567,0.812,0.525,1.006,0.712,0.337,0.585,0.552,�k��,2.2,��
2022/09/26,23:20,0.567,0.811,0.524,1.007,0.710,0.337,0.584,0.552,�k��,1.4,��
2022/09/26,23:30,0.566,0.815,0.524,1.007,0.711,0.336,0.585,0.553,�k�k��,1.2,��
2022/09/26,23:40,0.568,0.811,0.524,1.007,0.710,0.336,0.585,0.552,�k�k��,1.5,��
2022/09/26,23:50,0.567,0.812,0.522,1.005,0.710,0.336,0.583,0.551,�k�k��,2.0,��
